Date String (YYYY-MM-DD hh:mm:ss) UTC,Instrument flags,Ambient pressure (hPa),Sample flow (lpm),Bypass flow (lpm),Sample temperature (°C),Ambient temperature (°C),ASC tube jacket temperature (°C),LED temperature (°C),Box temperature (°C),Sample RH (%),Span deviation,Mass concentration (μg/m³),Mass concentration (μg/m³),Mass concentration (μg/m³)
DateTimeUTC,F1_M11,P_M11,Q1_M11,Q2_M11,T1_M11,T2_M11,T3_M11,T4_M11,T5_M11,U1_M11,ZSPAN_M11,X0_M11,X2_M11,X1_M11
2022-03-28 07:00:00,,0820.6,5.00,0.00,28.5,27.5,00.0,37.5,30.2,13.4,0001.5,0028.93,0016.65,0014.92
2022-03-28 07:01:00,,0820.7,4.99,0.00,28.5,27.5,00.0,37.5,30.2,13.4,0002.0,0027.99,0016.97,0015.24
2022-03-28 07:02:00,,0820.7,5.01,0.00,28.5,27.6,00.0,37.5,30.2,13.4,0002.3,0028.96,0017.28,0015.55
2022-03-28 07:03:00,,0820.7,5.02,0.00,28.5,27.6,00.0,37.4,30.2,13.3,0002.3,0029.51,0017.38,0015.67
2022-03-28 07:04:00,,0820.7,4.99,0.00,28.5,27.6,00.0,37.5,30.2,12.5,0002.3,0029.79,0017.21,0015.49
2022-03-28 07:05:00,,0820.6,5.00,0.00,28.5,27.5,00.0,37.5,30.1,12.3,0002.0,0029.01,0016.82,0015.13
2022-03-28 07:06:00,,0820.7,5.00,0.00,28.4,27.5,00.0,37.5,30.2,12.5,0002.1,0028.94,0016.53,0014.85
2022-03-28 07:07:00,,0820.7,5.02,0.00,28.4,27.5,00.0,37.5,30.2,12.6,0002.2,0028.31,0016.28,0014.59
2022-03-28 07:08:00,,0820.6,4.99,0.00,28.4,27.5,00.0,37.5,30.1,13.1,0001.9,0028.99,0016.16,0014.51
2022-03-28 07:09:00,,0820.6,5.00,0.00,28.4,27.4,00.0,37.4,30.0,13.3,0002.2,0029.78,0016.22,0014.55
2022-03-28 07:10:00,,0820.6,5.00,0.00,28.3,27.3,00.0,37.4,30.0,13.4,0002.5,0029.69,0016.20,0014.51
2022-03-28 07:11:00,,0820.6,4.99,0.00,28.3,27.3,00.0,37.4,30.0,13.7,0002.3,0030.47,0016.22,0014.52
2022-03-28 07:12:00,,0820.7,5.01,0.00,28.3,27.3,00.0,37.4,30.0,13.6,0001.7,0031.00,0016.23,0014.53
2022-03-28 07:13:00,,0820.7,5.00,0.00,28.3,27.3,00.0,37.4,30.0,13.6,0001.6,0029.88,0016.15,0014.47
2022-03-28 07:14:00,,0820.7,5.00,0.00,28.3,27.3,00.0,37.4,30.0,13.6,0001.5,0029.79,0016.16,0014.45
2022-03-28 07:15:00,,0820.7,4.99,0.00,28.3,27.3,00.0,37.4,30.0,13.7,0002.0,0031.06,0016.47,0014.65
2022-03-28 07:16:00,,0820.7,5.01,0.00,28.3,27.3,00.0,37.3,30.0,13.8,0002.1,0032.69,0016.98,0015.09
2022-03-28 07:17:00,,0820.7,4.99,0.00,28.3,27.3,00.0,37.3,30.0,13.8,0002.2,0033.58,0017.52,0015.56
2022-03-28 07:18:00,,0820.6,4.99,0.00,28.3,27.4,00.0,37.3,30.0,13.8,0001.7,0033.96,0017.87,0015.94
2022-03-28 07:19:00,,0820.6,5.00,0.00,28.3,27.4,00.0,37.3,30.0,13.7,0001.9,0034.28,0018.25,0016.26
2022-03-28 07:20:00,,0820.5,5.01,0.00,28.3,27.4,00.0,37.3,30.0,13.5,0002.1,0035.40,0018.41,0016.35
2022-03-28 07:21:00,,0820.5,4.99,0.00,28.3,27.4,00.0,37.3,30.0,13.4,0001.8,0036.93,0018.48,0016.40
2022-03-28 07:22:00,,0820.5,5.00,0.00,28.2,27.4,00.0,37.3,30.0,13.5,0002.2,0036.86,0018.50,0016.42
2022-03-28 07:23:00,,0820.4,5.00,0.00,28.2,27.3,00.0,37.3,30.0,13.7,0002.5,0036.33,0018.56,0016.47
2022-03-28 07:24:00,,0820.4,5.01,0.00,28.2,27.3,00.0,37.3,29.9,13.8,0002.7,0037.26,0018.70,0016.63
2022-03-28 07:25:00,,0820.6,5.01,0.00,28.2,27.3,00.0,37.3,29.9,13.9,0002.9,0037.38,0018.79,0016.74
2022-03-28 07:26:00,,0820.6,5.00,0.00,28.1,27.2,00.0,37.3,29.8,13.7,0002.9,0037.37,0018.74,0016.77
2022-03-28 07:27:00,,0820.6,4.99,0.00,28.1,27.2,00.0,37.2,29.8,13.8,0002.6,0036.64,0018.69,0016.77
2022-03-28 07:28:00,,0820.6,5.00,0.00,28.1,27.2,00.0,37.2,29.8,13.8,0002.3,0036.88,0018.61,0016.74
2022-03-28 07:29:00,,0820.6,5.00,0.00,28.1,27.1,00.0,37.2,29.8,13.8,0002.4,0036.71,0018.61,0016.70
2022-03-28 07:30:00,,0820.6,4.99,0.00,28.0,27.1,00.0,37.2,29.8,13.9,0002.3,0036.46,0018.52,0016.66
2022-03-28 07:31:00,,0820.6,4.98,0.00,28.0,27.1,00.0,37.2,29.8,13.9,0001.7,0035.20,0018.37,0016.61
2022-03-28 07:32:00,,0820.5,5.00,0.00,28.0,27.1,00.0,37.2,29.8,13.8,0002.0,0033.60,0018.42,0016.66
2022-03-28 07:33:00,,0820.5,5.00,0.00,28.1,27.2,00.0,37.1,29.9,13.8,0002.1,0032.55,0018.44,0016.70
2022-03-28 07:34:00,,0820.5,5.02,0.00,28.1,27.2,00.0,37.1,29.9,13.8,0002.0,0032.59,0018.45,0016.68
2022-03-28 07:35:00,,0820.5,5.00,0.00,28.1,27.2,00.0,37.1,29.8,13.9,0002.0,0032.55,0018.46,0016.64
2022-03-28 07:36:00,,0820.6,4.99,0.00,28.1,27.2,00.0,37.1,29.8,13.9,0002.0,0032.29,0018.38,0016.60
2022-03-28 07:37:00,,0820.6,4.99,0.00,28.0,27.2,00.0,37.1,29.7,13.9,0002.1,0031.68,0018.42,0016.64
2022-03-28 07:38:00,,0820.6,5.00,0.00,28.0,27.1,00.0,37.1,29.7,13.9,0002.4,0031.41,0018.42,0016.65
2022-03-28 07:39:00,,0820.6,5.01,0.00,28.0,27.1,00.0,37.1,29.6,14.0,0002.8,0032.19,0018.45,0016.64
2022-03-28 07:40:00,,0820.5,4.99,0.00,27.9,27.0,00.0,37.1,29.6,14.1,0002.7,0033.63,0018.43,0016.65
2022-03-28 07:41:00,,0820.5,4.99,0.00,27.9,27.0,00.0,37.0,29.6,14.1,0002.7,0034.02,0018.48,0016.69
2022-03-28 07:42:00,,0820.5,5.02,0.00,27.9,27.0,00.0,37.0,29.7,14.1,0002.8,0034.00,0018.48,0016.73
2022-03-28 07:43:00,,0820.5,5.00,0.00,27.9,27.1,00.0,37.0,29.7,14.1,0002.7,0034.48,0018.46,0016.77
2022-03-28 07:44:00,,0820.6,5.00,0.00,27.9,27.0,00.0,37.0,29.7,14.1,0002.9,0035.68,0018.47,0016.75
2022-03-28 07:45:00,,0820.6,4.99,0.00,27.9,27.0,00.0,37.0,29.7,14.1,0003.0,0035.87,0018.40,0016.71
2022-03-28 07:46:00,,0820.5,5.00,0.00,27.9,27.0,00.0,37.0,29.6,14.1,0003.0,0036.60,0018.38,0016.63
2022-03-28 07:47:00,,0820.5,4.99,0.00,27.9,27.1,00.0,37.0,29.7,14.1,0003.1,0037.89,0018.43,0016.58
2022-03-28 07:48:00,,0820.5,5.00,0.00,27.9,27.1,00.0,37.0,29.7,14.1,0002.9,0038.45,0018.38,0016.50
2022-03-28 07:49:00,,0820.4,5.01,0.00,27.9,27.1,00.0,37.0,29.7,14.1,0002.6,0038.66,0018.35,0016.47
2022-03-28 07:50:00,,0820.4,5.00,0.00,27.9,27.1,00.0,37.0,29.7,14.1,0002.3,0037.46,0018.30,0016.43
2022-03-28 07:51:00,,0820.5,5.00,0.00,27.9,27.1,00.0,37.0,29.7,14.0,0002.7,0036.26,0018.32,0016.41
2022-03-28 07:52:00,,0820.4,5.00,0.00,27.9,27.1,00.0,37.0,29.6,13.9,0002.8,0037.04,0018.30,0016.32
2022-03-28 07:53:00,,0820.3,5.00,0.00,27.9,27.0,00.0,37.0,29.6,13.8,0002.6,0038.63,0018.27,0016.26
2022-03-28 07:54:00,,0820.3,5.00,0.00,27.8,27.0,00.0,36.9,29.6,13.8,0002.5,0037.83,0018.23,0016.21
2022-03-28 07:55:00,,0820.3,4.99,0.00,27.8,26.9,00.0,36.9,29.6,13.9,0002.1,0037.23,0018.23,0016.20
2022-03-28 07:56:00,,0820.3,5.01,0.00,27.8,26.9,00.0,36.9,29.5,14.0,0002.3,0037.04,0018.30,0016.23
2022-03-28 07:57:00,,0820.4,5.00,0.00,27.8,26.8,00.0,36.9,29.5,13.9,0002.8,0035.88,0018.28,0016.27
2022-03-28 07:58:00,,0820.4,4.99,0.00,27.8,26.8,00.0,36.9,29.5,13.6,0002.7,0034.60,0018.12,0016.20
2022-03-28 07:59:00,,0820.3,5.00,0.00,27.7,26.8,00.0,36.9,29.4,13.9,0002.4,0033.15,0018.05,0016.16
